Simultaneous Nadir Overpasses (SNOs) Predictions

Prediction of SNOs between METOP-B and NOAA-19 Satellite Orbit:

Table of predicted SNOs for the next 14.0 days since TLE Epoch: 8/26/2013
Index Date (METOP-B) Time (METOP-B) Lat,Lon (METOP-B) SZA (METOP-B ) Date (NOAA-19) Time (NOAA-19) Lat,Lon (NOAA-19) SZA (NOAA-19 ) Distance(km) Time Diff (sec)
1 09/02/2013 10:25:48 73.53, 17.47 65.76 09/02/2013 10:24:34 73.58, 17.09 65.84 13.27 74
2 09/02/2013 11:16:32 -73.44,-175.40 114.31 09/02/2013 11:15:29 -73.46,-175.37 114.29 2.24 63
3 09/02/2013 12:07:12 73.41, -8.15 65.68 09/02/2013 12:06:35 73.41, -8.04 65.68 3.52 37
4 09/02/2013 12:57:54 -73.42, 159.21 114.30 09/02/2013 12:57:33 -73.44, 159.16 114.28 2.53 21
5 09/02/2013 13:48:34 73.39, -33.53 65.68 09/02/2013 13:48:39 73.39, -33.51 65.69 0.98 5
6
